Flag for Germany Weather past 2 weeks in Schwerin, Mecklenburg-Western Pomerania, Germany

Now
51 °F

Rain. Overcast.


Feels Like: 47 °F
Forecast: 48 / 49 °F
Wind: 12 mph from West

Location: Schwerin

Current Time: Dec 22, 2014 at 2:37:56 PM

Latest Report: Dec 22, 2014 at 2:00 PM


Visibility: 3 mi

Pressure: 29.67 "Hg

Humidity: 95%

Dew point: 50 °F

Location of SchwerinLocation

Historic Weather in Schwerin — Graph

°F

Schwerin temperature yesterday

Maximum temperature yesterday: 44 °F (at 11:00 PM)
Minimum temperature yesterday: 38 °F (at 9:00 AM)
Average temperature yesterday: 41 °F

Past Weeks' High & Low Weather Summary

 TemperatureHumidityPressure
High52 °F (Dec 18, 11:00 PM)100% (Dec 17, 11:00 PM)30.32 "Hg (Dec 17, 11:00 PM)
Low32 °F (Dec 15, 1:00 AM)75% (Dec 20, 9:00 AM)29.21 "Hg (Dec 12, 3:00 PM)
Average40 °F90%29.80 "Hg
* Reported Dec 7 1:00 PM — Dec 22 1:00 PM, Schwerin, Weather by CustomWeather, © 2014

Note: Actual official high and low records may vary slightly from our data, if they occured in-between our weather recording intervals... More about our weather records

Advertising

Schwerin weather history for previous 24 hours

 ConditionsComfort  
Time TempWeatherWind HumidityBarometerVisibility
1:00 PM
Dec 22
50 °FLight rain. Low clouds.10 mph95%29.67 "Hg9 mi
12:00 PM50 °FRain. Overcast.12 mph96%29.67 "Hg2 mi
11:00 AM50 °FLight freezing rain. Low clouds.13 mph96%29.68 "Hg2 mi
9:00 AM49 °FLight freezing rain. Low clouds.12 mph95%29.70 "Hg1 mi
8:00 AM49 °FLight rain. Low clouds.12 mph95%29.71 "Hg4 mi
7:00 AM49 °FLight rain. Low clouds.10 mph96%29.72 "Hg3 mi
6:00 AM48 °FLight freezing rain. Low clouds.10 mph96%29.72 "Hg2 mi
5:00 AM47 °FDrizzle. Low clouds.13 mph96%29.74 "Hg2 mi
3:00 AM46 °FDrizzle. Low clouds.13 mph93%29.78 "Hg2 mi
2:00 AM46 °FLight freezing rain. Overcast.13 mph90%29.79 "Hg3 mi
1:00 AM46 °FDrizzle. Overcast.14 mph89%29.82 "Hg6 mi
12:00 AM44 °FDrizzle. Low clouds.12 mph96%29.85 "Hg2 mi
11:00 PM
Dec 21
44 °FDrizzle. Low clouds.12 mph95%29.88 "Hg2 mi
9:00 PM42 °FLight freezing rain. Low clouds.10 mph96%29.94 "Hg2 mi
8:00 PM42 °FLow clouds.9 mph94%29.97 "Hg4 mi
7:00 PM42 °FDrizzle. Low clouds.10 mph92%29.99 "Hg2 mi
6:00 PM43 °FOvercast.9 mph85%30.02 "Hg7 mi
5:00 PM43 °FDrizzle. Overcast.9 mph87%30.05 "Hg6 mi
3:00 PM42 °FOvercast.8 mph88%30.10 "Hg6 mi
2:00 PM42 °FOvercast.9 mph86%30.13 "Hg7 mi
Weather by CustomWeather, © 2014

See weather overviewHow to use our weather pages